www.pogodaiklimat.ru

Архив погоды в Иркутске (Иркутская область, Россия)

Время
(UTC), дата
21 21.06
00 22.06
03 22.06
06 22.06
09 22.06
12 22.06
15 22.06
18 22.06
21 22.06
00 23.06
03 23.06
06 23.06
09 23.06
12 23.06
15 23.06
18 23.06
21 23.06
00 24.06
03 24.06
06 24.06
09 24.06
12 24.06
15 24.06
18 24.06
21 24.06
00 25.06
03 25.06
06 25.06
09 25.06
12 25.06
15 25.06
18 25.06
21 25.06
00 26.06
03 26.06
06 26.06
09 26.06
12 26.06
15 26.06
18 26.06
21 26.06
00 27.06
03 27.06
06 27.06
09 27.06
12 27.06
15 27.06
18 27.06
21 27.06
00 28.06
03 28.06
06 28.06
09 28.06
12 28.06
15 28.06
18 28.06
Ветер
(напр.,м/с)
Видим. Явления Облачность Т
(С)
Тd
(С)
f
(%)
Тe
(С)
Тes
(С)
Комфортность P
(гПа)
Po
(гПа)
Тmin
(С)
Tmax
(С)
R
(мм)
R24
(мм)
S
(см)
СЗ 1 4000 м гроза, ливневой дождь 10/10 600 м
[Cb cap]
+13.7 +12.9 95 +14 +14 по сезону 1005.5 951.4
СЗ 2 20 км {гроза, ливн. дождь} 10/10 600 м
[Cb cap]
+14.4 +12.8 90 +14 +14 по сезону 1006.2 952.2 +13.1 2
СЗ 2 20 км 10/10 600 м
[Cb cap]
+16.8 +13.3 80 +17 +17 по сезону 1006.5 952.8
С 2 20 км 9/9 600 м
[Cb cap]
+18.4 +12.3 68 +19 +21 по сезону 1006.5 953.1
З 1 50 км 8/8 600 м
[Cb cap]
+21.1 +12.1 56 +23 +25 комфорт 1005.8 952.9
СЗ 1 50 км 3/3 1000 м
[Cu med, cong]
+19.4 +11.2 59 +22 +22 комфорт 1006.4 953.2 +21.7
З 1 н/о 3/0
[Ci fib]
+15.1 +10.9 76 +16 +16 по сезону 1007.9 953.8
ЮВ 1 н/о 6/0
[Ac trans Ci fib]
+13.1 +11.8 92 +13 +13 по сезону 1008.3 953.9
СВ 1 20 км ясно +10.2 +9.1 93 +10 +10 прохладно 1008.9 953.9
ЮВ 1 20 км 8/0
[Ac trans]
+16.9 +11.8 72 +18 +21 тепло 1007.4 953.7 +10.1
ЮВ 2 20 км 4/0
[Ac trans]
+22.6 +11.7 50 +25 +36 комфорт 1005.6 953.0
З 1 50 км 8/0
[Ac trans Ci fib]
+25.3 +12.4 45 +27 +40 жарко 1003.8 951.7
СВ 1 50 км {ливн. дождь} 10/3 600 м
[Cb cap Ac trans Ci fib]
+25.7 +11.7 42 +27 +30 жарко 1002.5 950.6
З 1 50 км {ливн. дождь} 10/8 600 м
[Cb cap Ac und]
+22.8 +13.5 56 +26 +26 жарко 1002.8 950.4 +26.8 0.0
штиль 0 н/о 8/3 600 м
[Cb cap Ac trans]
+19.7 +15.0 74 +21 +21 комфорт 1002.6 949.7
штиль 0 н/о 8/8 1000 м
[Sc diur, vesp]
+16.9 +14.5 86 +17 +17 тепло 1001.9 948.5
СВ 1 50 км 6/6 600 м
[Cb cap]
+14.1 +12.7 91 +14 +14 по сезону 1002.7 948.8
штиль 0 50 км {ливн. дождь} 9/8 600 м
[Cb cap Ci fib]
+17.9 +13.9 77 +18 +19 тепло 1002.3 949.1 +14.1 0.0
Ю 1 50 км 10/6 600 м
[Cb cap Cs]
+22.0 +14.5 62 +25 +31 комфорт 1001.0 948.6
ЮВ 2 50 км 8/3 600 м
[Cb cap Cc]
+25.3 +12.0 43 +27 +37 жарко 998.8 947.0
ЮВ 3 50 км 4/0
[Ci fib]
+25.7 +13.6 47 +28 +34 жарко 997.1 945.5
З 1 20 км гроза, ливневой дождь 10/10 600 м
[Cb cap]
+20.9 +13.2 61 +25 +25 комфорт 1001.0 948.4 +26.9 0.0
З 1 н/о в посл. час ливневой дождь {гроза} 8/8 600 м
[Cb cap]
+16.7 +16.2 97 +18 +18 тепло 1003.1 949.7
Ю 1 н/о {гроза, ливн. дождь} 10/10 600 м
[Cb cap]
+16.2 +15.3 94 +17 +17 тепло 1004.3 950.8
Ю 1 10 км слаб. ливневой дождь 10/10 600 м
[Cb cap]
+15.7 +15.2 97 +16 +16 тепло 1005.1 951.4
З 1 20 км слаб. ливневой дождь 10/10 600 м
[Cb cap]
+17.3 +15.7 90 +18 +18 тепло 1005.4 952.0 +15.6 4
С 1 20 км {ливн. дождь} 9/8 600 м
[Cb cap Ac trans]
+21.1 +15.4 70 +24 +26 комфорт 1005.3 952.5
СЗ 2 50 км {ливн. дождь} 8/8 600 м
[Cb cap]
+23.5 +14.6 57 +26 +29 жарко 1004.5 952.1
З 1
{10}
50 км {ливн. дождь} 9/5 600 м
[Cb cap Ac trans]
+21.0 +16.2 74 +26 +28 душно 1005.1 952.3
З 1 50 км {ливн. дождь} 3/0
[Ac cast]
+20.4 +14.8 70 +24 +25 комфорт 1005.6 952.7 +23.5 0.9
штиль 0 н/о 3/0
[Ac trans]
+17.9 +14.4 80 +18 +18 тепло 1007.3 953.9
В 1 н/о 6/0
[Ac trans]
+15.3 +14.1 93 +16 +16 тепло 1008.6 954.6
ЮВ 1 20 км ясно +13.6 +12.5 93 +14 +14 по сезону 1009.5 955.2
штиль 0 50 км 3/0
[Cc]
+18.2 +13.8 75 +18 +24 тепло 1009.4 955.9 +13.6
ЮЗ 1 50 км 4/0
[Ci fib]
+23.3 +12.7 51 +26 +41 жарко 1008.1 955.6
ЮЗ 1 20 км 10/3 600 м
[Cb cap Cs]
+27.1 +13.5 43 +29 +40 жарко 1005.8 954.0
СЗ 1 50 км 9/3 600 м
[Cb cap Cs]
+28.1 +10.6 34 +29 +34 жарко 1004.6 953.0
Ю 1 50 км 3/0
[Ci fib]
+25.6 +11.1 40 +27 +27 жарко 1004.5 952.5 +28.4
ЮВ 1 н/о 8/0
[Ci fib]
+20.9 +12.2 57 +24 +24 комфорт 1005.8 953.0
ЮВ 1 н/о ясно +17.2 +12.6 74 +18 +18 тепло 1006.2 952.6
ЮВ 2 50 км 4/0
[Ci fib]
+14.6 +11.1 80 +14 +14 тепло 1005.9 951.9
ЮВ 3 50 км 3/0
[Ci fib]
+19.1 +11.0 59 +20 +24 тепло 1005.0 951.8 +14.2
ЮВ 2 50 км ясно +26.1 +13.2 45 +28 +42 жарко 1002.6 950.8
ЮВ 3 50 км ясно +30.3 +13.1 35 +32 +45 жарко 1000.5 949.5
ЮВ 3 50 км ясно +30.8 +12.3 32 +31 +38 жарко 999.5 948.6
ЮВ 1 50 км 8/0
[Cs]
+28.0 +12.6 39 +29 +30 жарко 999.9 948.6 +32.3
ЮВ 2 н/о 6/0
[Ci fib]
+21.3 +9.0 45 +23 +23 комфорт 1001.8 949.1
ЮВ 3 н/о 4/0
[Ci fib]
+18.6 +9.9 57 +19 +19 тепло 1002.1 949.0
ЮВ 3 50 км ясно +15.6 +9.6 67 +15 +15 тепло 1002.1 948.4
ЮВ 4 50 км ясно +19.0 +9.9 56 +20 +23 тепло 1000.7 947.7 +15.5
ЮВ 3 50 км 6/0
[Ci fib]
+25.5 +13.0 46 +27 +38 жарко 998.3 946.6
ЮВ 3 50 км 6/1 1000 м
[Cu hum Ci fib]
+29.8 +14.6 40 +32 +43 душно 996.4 945.5
ЮВ 3 50 км 4/1 600 м
[Cb cap Ci fib]
+30.6 +14.1 37 +32 +38 жарко 995.0 944.3
ЮЗ 1 50 км 9/4 600 м
[Cb cap Ci fib]
+25.4 +14.7 52 +28 +28 жарко 997.9 946.3 +31.5
СЗ 4-13
{13}
н/о 10/6 600 м
[Cb cap Ac und]
+25.4 +17.3 61 +29 +29 душно 1001.8 950.0
З 2
{14}
н/о 10/8 600 м
[Cb cap Ac und]
+20.2 +15.3 73 +23 +23 комфорт 1005.1 952.2
Местоположение метеостанции Иркутск (Иркутская область, Россия): широта 52.27 долгота 104.30 высота над уровнем моря 469 м.
В архиве по умолчанию представлена погода в Иркутске за последнюю неделю. Архивные данные за месяц целиком и за предыдущие месяцы, начиная с января 2011 года, Вы можете получить, выбрав интересующий диапазон дат из раскрывающегося списка и нажав кнопку "Найти!".
*Определитесь, кто Вы:
Внимание! Время в таблицах - всемирное. Для получения местного времени необходимо прибавить поправку, которая равна 8 ч.
Смотрите также архив погоды в соседних городах и на ближайших метеорологических станциях:
Партнеры нашего сайта:      
Пояснения к столбцам:
  • Ветер - указаны скорость ветра в м/с - средняя за 10 мин, порывы в срок и между сроками (в фигурных скобках) и направление, откуда дует ветер: С - северный,
  • СВ - северо-восточный, В - восточный, ЮВ - юго-восточный, Ю - южный, ЮЗ - юго-западный, З - западный, СЗ - северо-западный.
  • Видимость - горизонтальная дальность видимости в метрах или километрах. При видимости от 1 до 10 км при отсутствии осадков обычно наблюдается дымка, при ухудшении видимости до 1 км и менее - туман. В сухую погоду видимость может ухудшаться дымом, пылью или мглою.
  • Явления - указаны атмосферные явления, наблюдавшиеся в срок или в последний час перед сроком; фигурными скобками обозначены явления, наблюдавшиеся между сроками (за 1-3 часа до срока); квадратными скобками обозначены град или гололедные отложения с указанием их диаметра в мм.
  • Облачность - указаны через наклонную черту общая и нижняя облачность в баллах и высота нижней границы облаков в метрах; квадратными скобками обозначены формы облаков: Ci - перистые, Cs - перисто-слоистые, Cc - перисто-кучевые, Ac - высококучевые, As - высокослоистые, Sc - слоисто-кучевые, Ns - слоисто-дождевые, Cu - кучевые, Cb - кучево-дождевые. Подробнее классификацию облаков см. в Атласе облаков (PDF).
  • T - Температура воздуха - температура, измеренная на высоте 2 м над землей.
  • Td - Температура точки росы - температура, при понижении до которой содержащийся в воздухе водяной пар достигнет насыщения.
  • f - Относительная влажность воздуха - влажноcть воздуха, измеренная на высоте 2 м над землей.
  • Te - Эффективная температура - температура, которую ощущает одетый по сезону человек в тени. Характеристика душности погоды. При расчете учитывается влияние влажности воздуха и скорости ветра на теплоощущения человека.
  • Tes - Эффективная температура на солнце - температура, которую ощущает человек, с поправкой на солнечный нагрев. Характеристика знойности погоды. Зависит от высоты солнца над горизонтом, облачности и скорости ветра. Ночью, в пасмурную погоду, а также при ветре 12 м/с и более поправка равна нулю.
  • P - Атмосферное давление - приведенное к уровню моря атмосферное давление.
  • Po - Атмосферное давление - измеренное на уровне метеостанции атмосферное давление.
  • Tmin - Минимальная температура - минимум температуры воздуха на высоте 2 м над землей.
  • Tmax - Максимальная температура - максимум температуры воздуха на высоте 2 м над землей.
  • R - Количество осадков - Количество выпавших осадков за период времени, мм. При наведении курсора мыши на число - период времени, за который выпало указанное количество осадков.
  • R24 - Количество осадков - Количество выпавших осадков за 24 часа, мм.
  • S - Снежный покров - Высота снежного покрова, см. При наведении курсора мыши на число - состояние снежного покрова и степень покрытия местности в баллах.